Reflectivity
-20 -20 -20 -20 -20 -20 -20 -20 -20 -20 -20 -20 -20 -20 -20 13 13 15 13 -3 13 12
-20 -20 -20 -20 -20 -20 -20 -20 -20 -20 -20 -20 -20 -20 -20 -17 -4 9 3 18 -20 -18
-20 -20 -20 -20 -20 -20 -17 -20 -20 -20 -20 -20 -20 -20 -15 11 5 14 20 24 -7 -20
-20 -20 -20 -20 -20 -9 -8 -20 -20 -20 -20 -19 -20 -18 7 10 8 17 20 23 12 -12
-20 -20 -12 -20 -20 -20 -20 -20 -20 -10 -6 -20 -19 -20 9 19 -18 20 17 25 -11 -12
-5 9 -20 -14 4 -13 2 -15 -20 9 4 -10 -20 -12 13 2 -20 3 15 2 -20 -6
9 -14 -20 -20 -20 -20 -20 -20 -11 4 10 -19 -19 17 16 -8 -19 22 18 -19 -2 -7
-7 -20 -20 -20 -17 -5 -2 -13 3 1 -14 3 2 29 33 9 18 5 15 25 7 31
-20 -20 -20 -20 -20 -20 -4 25 -1 8 11 -1 26 20 26 14 30 15 3 34 35 19
-18 -13 -15 -20 -19 -20 -17 -12 -1 11 -9 14 15 25 19 38 16 -19 -1 33 24 29
-20 -19 -15 -20 -20 -20 -13 -9 -0 -4 -5 20 27 16 25 36 22 -11 -1 30 1 16
-20 5 -20 -20 -8 12 8 -16 -5 1 -0 -1 30 25 34 24 16 -17 -18 -19 13 -9
-20 -20 -2 -3 -20 11 10 -18 -17 -1 6 21 8 11 30 31 13 -4 -20 -18 -13 -8
-20 -20 -20 -5 -12 -6 -13 6 12 11 1 8 7 -1 12 2 -7 -17 -20 -20 -20 -20
Wind_Speed
6 4 4 4 5 6 6 7 7 6 7 7 7 7 8 8 9 11 11 13 10 6
8 8 8 7 7 7 8 8 8 8 8 8 8 8 8 8 11 11 11 12 10 8
10 8 8 7 8 9 9 7 7 7 8 10 8 7 8 9 11 12 10 8 11 11
10 9 8 7 8 7 8 9 10 11 12 11 9 8 9 12 10 13 11 9 11 11
10 9 8 6 7 6 10 11 12 12 10 9 10 9 12 11 11 12 10 9 9 10
7 6 7 8 9 9 10 11 11 9 10 10 9 10 12 12 9 9 10 10 11 10
7 7 7 7 8 8 9 9 10 6 8 10 8 8 8 9 9 7 6 5 6 9
7 6 6 7 8 8 8 8 9 5 7 6 6 8 10 10 10 10 9 8 8 7
7 7 7 7 8 8 8 8 8 8 7 7 4 12 15 14 10 10 10 9 8 7
7 6 7 7 8 8 8 7 8 7 9 9 8 17 20 16 10 10 10 10 9 9
6 6 6 7 8 8 7 8 8 8 9 11 11 18 23 19 12 11 11 10 9 9
5 4 6 7 7 7 7 9 8 8 10 10 11 19 21 14 10 12 11 9 9 8
4 5 6 6 6 6 7 8 7 10 10 15 11 16 17 13 7 10 8 9 10 15
5 5 5 5 5 6 7 7 8 9 8 8 9 11 17 14 7 7 7 7 5 5
Wind_Direction
295 297 290 283 285 277 261 251 243 246 234 236 227 221 225 214 211 207 199 191 196 192
317 311 299 287 280 276 267 255 243 241 241 234 228 223 215 217 208 206 199 199 189 193
298 285 284 280 276 276 271 275 268 251 238 240 221 218 217 222 209 205 198 195 183 193
300 297 290 282 285 297 290 280 275 265 256 241 230 217 221 226 201 203 188 181 179 188
305 305 299 306 306 289 297 288 268 257 253 233 232 226 221 202 193 192 179 177 177 173
316 336 336 327 324 317 309 297 286 252 235 232 227 216 204 194 176 183 179 170 174 169
345 339 329 328 322 317 314 309 301 260 251 231 217 180 150 133 120 112 102 120 159 171
332 329 336 336 329 323 333 341 340 12 358 98 120 126 130 124 117 113 100 85 77 74
337 343 338 339 342 340 353 4 16 21 35 32 73 117 124 118 116 113 111 103 99 90
342 347 343 358 1 359 358 15 35 38 55 63 66 102 98 94 102 102 104 109 105 93
352 360 3 20 14 7 8 26 41 51 66 77 81 94 97 90 92 92 88 88 92 101
356 8 29 31 21 17 35 42 42 62 70 82 85 89 93 94 91 90 85 88 95 100
8 26 39 40 35 36 46 45 50 61 63 82 88 98 98 94 96 96 97 90 95 104
31 37 38 44 51 58 57 55 53 59 59 67 75 89 96 103 101 104 100 97 90 101